Wetterdaten: Woche 05.01.09 - 11.01.09 (KW2)
Datum Zeit Temp. Innen Temp. Aussen Feuchte Inne Feuchte Auss Luftdruck Regen ab 0,1 Wind
05.01.2009 00:00 15,2 C -0,4 C 38 % 86 % 1015,1 hPa 0,0 l/m 2,1 km/h (1 Bft)
05.01.2009 01:00 15,2 C -0,4 C 38 % 86 % 1014,6 hPa 0,0 l/m 0,0 km/h (0 Bft)
05.01.2009 02:00 15,2 C -0,4 C 38 % 87 % 1014,6 hPa 0,0 l/m 0,0 km/h (0 Bft)
05.01.2009 03:00 15,2 C -0,5 C 38 % 87 % 1014,6 hPa 0,0 l/m 0,0 km/h (0 Bft)
05.01.2009 04:00 15,2 C -0,6 C 38 % 87 % 1014,6 hPa 0,0 l/m 0,0 km/h (0 Bft)
05.01.2009 05:00 15,2 C -0,6 C 38 % 87 % 1014,6 hPa 0,0 l/m 0,0 km/h (0 Bft)
05.01.2009 06:00 15,2 C -0,6 C 38 % 87 % 1015,1 hPa 0,0 l/m 0,0 km/h (0 Bft)
05.01.2009 07:00 15,2 C -0,6 C 38 % 87 % 1015,6 hPa 0,0 l/m 0,0 km/h (0 Bft)
05.01.2009 08:00 15,3 C -0,6 C 38 % 88 % 1016,5 hPa 0,0 l/m 0,0 km/h (0 Bft)
05.01.2009 09:00 15,3 C -0,5 C 38 % 88 % 1017,1 hPa 0,0 l/m 0,0 km/h (0 Bft)
05.01.2009 10:00 15,3 C -0,2 C 38 % 88 % 1018,5 hPa 0,0 l/m 0,0 km/h (0 Bft)
05.01.2009 11:00 15,3 C -0,2 C 38 % 87 % 1018,9 hPa 0,0 l/m 0,0 km/h (0 Bft)
05.01.2009 12:00 15,3 C -0,5 C 37 % 84 % 1019,6 hPa 0,0 l/m 0,0 km/h (0 Bft)
05.01.2009 13:00 15,3 C -0,5 C 36 % 83 % 1019,6 hPa 0,0 l/m 0,0 km/h (0 Bft)
05.01.2009 14:00 15,3 C -0,4 C 36 % 82 % 1020,3 hPa 0,0 l/m 0,0 km/h (0 Bft)
05.01.2009 15:00 15,3 C -0,3 C 36 % 80 % 1020,8 hPa 0,0 l/m 0,0 km/h (0 Bft)
05.01.2009 16:00 15,3 C -1,0 C 36 % 80 % 1021,9 hPa 0,0 l/m 0,0 km/h (0 Bft)
05.01.2009 17:00 15,3 C -1,9 C 38 % 80 % 1022,6 hPa 0,0 l/m 0,0 km/h (0 Bft)
05.01.2009 18:00 15,3 C -2,5 C 40 % 81 % 1023,6 hPa 0,0 l/m 0,0 km/h (0 Bft)
05.01.2009 19:00 15,3 C -3,9 C 38 % 81 % 1024,0 hPa 0,0 l/m 0,0 km/h (0 Bft)
05.01.2009 20:00 15,2 C -4,5 C 39 % 82 % 1024,7 hPa 0,0 l/m 0,0 km/h (0 Bft)
05.01.2009 21:00 15,2 C -5,1 C 39 % 82 % 1024,7 hPa 0,0 l/m 0,0 km/h (0 Bft)
05.01.2009 22:00 15,0 C -6,3 C 38 % 83 % 1025,0 hPa 0,0 l/m 0,0 km/h (0 Bft)
05.01.2009 23:00 15,0 C -7,0 C 38 % 83 % 1025,6 hPa 0,0 l/m 0,0 km/h (0 Bft)
06.01.2009 00:00 15,0 C -7,1 C 38 % 83 % 1025,7 hPa 0,0 l/m 0,0 km/h (0 Bft)
06.01.2009 01:00 15,0 C -7,9 C 37 % 84 % 1025,7 hPa 0,0 l/m 0,0 km/h (0 Bft)
06.01.2009 02:00 14,8 C -8,9 C 37 % 84 % 1025,8 hPa 0,0 l/m 0,0 km/h (0 Bft)
06.01.2009 03:00 14,7 C -10,0 C 36 % 83 % 1025,8 hPa 0,0 l/m 0,0 km/h (0 Bft)
06.01.2009 04:00 14,6 C -10,7 C 35 % 83 % 1025,8 hPa 0,0 l/m 0,0 km/h (0 Bft)
06.01.2009 05:00 14,4 C -11,7 C 35 % 83 % 1025,8 hPa 0,0 l/m 0,0 km/h (0 Bft)
06.01.2009 06:00 14,3 C -12,9 C 34 % 83 % 1025,8 hPa 0,0 l/m 0,0 km/h (0 Bft)
06.01.2009 07:00 14,3 C -12,6 C 34 % 83 % 1025,8 hPa 0,0 l/m 0,0 km/h (0 Bft)
06.01.2009 08:00 14,1 C -13,5 C 34 % 83 % 1025,8 hPa 0,0 l/m 0,0 km/h (0 Bft)
06.01.2009 09:00 13,8 C -13,7 C 33 % 83 % 1026,1 hPa 0,0 l/m 0,0 km/h (0 Bft)
06.01.2009 10:00 13,7 C -12,1 C 33 % 84 % 1026,8 hPa 0,0 l/m 0,0 km/h (0 Bft)
06.01.2009 11:00 13,6 C -9,7 C 33 % 85 % 1026,4 hPa 0,0 l/m 0,0 km/h (0 Bft)
06.01.2009 12:00 13,6 C -7,4 C 33 % 83 % 1025,2 hPa 0,0 l/m 0,0 km/h (0 Bft)
06.01.2009 13:00 13,6 C -5,9 C 33 % 79 % 1024,7 hPa 0,5 l/m 0,0 km/h (0 Bft)
06.01.2009 14:00 13,6 C -4,9 C 33 % 76 % 1024,5 hPa 0,0 l/m 0,0 km/h (0 Bft)
06.01.2009 15:00 13,6 C -5,3 C 33 % 74 % 1023,7 hPa 0,0 l/m 0,0 km/h (0 Bft)
06.01.2009 16:00 13,7 C -6,4 C 34 % 75 % 1023,8 hPa 0,0 l/m 0,0 km/h (0 Bft)
06.01.2009 17:00 13,8 C -8,2 C 34 % 76 % 1023,7 hPa 0,0 l/m 0,0 km/h (0 Bft)
06.01.2009 18:00 13,8 C -10,0 C 33 % 77 % 1024,1 hPa 0,0 l/m 0,0 km/h (0 Bft)
06.01.2009 19:00 13,9 C -11,2 C 33 % 78 % 1023,8 hPa 0,0 l/m 0,0 km/h (0 Bft)
06.01.2009 20:00 13,8 C -12,3 C 33 % 79 % 1023,8 hPa 0,0 l/m 0,0 km/h (0 Bft)
06.01.2009 21:00 13,8 C -13,2 C 33 % 79 % 1023,8 hPa 0,0 l/m 0,0 km/h (0 Bft)
06.01.2009 22:00 13,6 C -13,8 C 32 % 80 % 1023,5 hPa 0,0 l/m 0,0 km/h (0 Bft)
06.01.2009 23:00 13,6 C -14,4 C 32 % 80 % 1023,9 hPa 0,0 l/m 0,0 km/h (0 Bft)
07.01.2009 00:00 13,5 C -14,3 C 32 % 81 % 1023,9 hPa 0,0 l/m 0,0 km/h (0 Bft)
07.01.2009 01:00 13,2 C -13,8 C 32 % 81 % 1023,5 hPa 0,0 l/m 0,0 km/h (0 Bft)
07.01.2009 02:00 13,1 C -13,9 C 32 % 82 % 1022,8 hPa 0,0 l/m 0,0 km/h (0 Bft)
07.01.2009 03:00 13,0 C -13,8 C 32 % 82 % 1022,8 hPa 0,0 l/m 0,0 km/h (0 Bft)
07.01.2009 04:00 12,9 C -13,7 C 32 % 82 % 1022,8 hPa 0,0 l/m 0,0 km/h (0 Bft)
07.01.2009 05:00 12,9 C -13,4 C 32 % 82 % 1022,8 hPa 0,0 l/m 0,0 km/h (0 Bft)
07.01.2009 06:00 12,9 C -12,9 C 32 % 82 % 1022,6 hPa 0,0 l/m 0,0 km/h (0 Bft)
07.01.2009 07:00 13,0 C -11,8 C 32 % 83 % 1022,1 hPa 0,0 l/m 0,0 km/h (0 Bft)
07.01.2009 08:00 12,9 C -10,8 C 32 % 83 % 1022,2 hPa 0,0 l/m 0,0 km/h (0 Bft)
07.01.2009 09:00 12,8 C -9,9 C 32 % 83 % 1022,8 hPa 0,0 l/m 0,0 km/h (0 Bft)
07.01.2009 10:00 12,8 C -8,8 C 32 % 84 % 1022,7 hPa 0,0 l/m 0,0 km/h (0 Bft)
07.01.2009 11:00 12,8 C -7,3 C 32 % 84 % 1022,7 hPa 0,0 l/m 0,0 km/h (0 Bft)
07.01.2009 12:00 12,8 C -5,8 C 32 % 84 % 1022,7 hPa 0,0 l/m 0,0 km/h (0 Bft)
07.01.2009 13:00 12,8 C -4,7 C 33 % 83 % 1022,2 hPa 0,0 l/m 0,0 km/h (0 Bft)
07.01.2009 14:00 12,9 C -4,0 C 33 % 83 % 1021,7 hPa 0,0 l/m 0,0 km/h (0 Bft)
07.01.2009 15:00 13,0 C -3,8 C 33 % 83 % 1022,6 hPa 0,0 l/m 0,0 km/h (0 Bft)
07.01.2009 16:00 13,0 C -3,6 C 34 % 83 % 1022,9 hPa 0,0 l/m 0,0 km/h (0 Bft)
07.01.2009 17:00 13,1 C -3,6 C 35 % 84 % 1023,7 hPa 0,0 l/m 0,0 km/h (0 Bft)
07.01.2009 18:00 13,1 C -3,4 C 35 % 84 % 1024,0 hPa 0,0 l/m 0,0 km/h (0 Bft)
07.01.2009 19:00 13,2 C -3,2 C 35 % 84 % 1024,6 hPa 0,0 l/m 0,0 km/h (0 Bft)
07.01.2009 20:00 13,3 C -3,4 C 35 % 84 % 1025,3 hPa 0,0 l/m 0,0 km/h (0 Bft)
07.01.2009 21:00 13,3 C -3,6 C 35 % 84 % 1026,2 hPa 0,0 l/m 0,0 km/h (0 Bft)
07.01.2009 22:00 13,3 C -3,6 C 35 % 84 % 1026,7 hPa 0,0 l/m 0,0 km/h (0 Bft)
07.01.2009 23:00 13,4 C -3,5 C 35 % 84 % 1027,3 hPa 0,0 l/m 0,0 km/h (0 Bft)
08.01.2009 00:00 13,4 C -3,5 C 35 % 85 % 1027,7 hPa 0,0 l/m 0,0 km/h (0 Bft)
08.01.2009 01:00 13,4 C -3,4 C 35 % 85 % 1028,1 hPa 0,0 l/m 0,0 km/h (0 Bft)
08.01.2009 02:00 13,4 C -3,3 C 36 % 85 % 1028,7 hPa 0,0 l/m 0,0 km/h (0 Bft)
08.01.2009 03:00 13,5 C -3,2 C 36 % 86 % 1028,7 hPa 0,0 l/m 0,0 km/h (0 Bft)
08.01.2009 04:00 13,5 C -3,3 C 36 % 86 % 1028,8 hPa 0,0 l/m 0,0 km/h (0 Bft)
08.01.2009 05:00 13,5 C -3,5 C 36 % 87 % 1029,4 hPa 0,0 l/m 0,0 km/h (0 Bft)
08.01.2009 06:00 13,6 C -3,8 C 36 % 87 % 1029,7 hPa 0,0 l/m 0,0 km/h (0 Bft)
08.01.2009 07:00 13,6 C -4,2 C 36 % 87 % 1029,8 hPa 0,0 l/m 0,0 km/h (0 Bft)
08.01.2009 08:00 13,6 C -4,6 C 36 % 87 % 1030,7 hPa 0,0 l/m 0,0 km/h (0 Bft)
08.01.2009 09:00 13,6 C -4,7 C 36 % 87 % 1031,1 hPa 0,0 l/m 0,0 km/h (0 Bft)
08.01.2009 10:00 13,6 C -4,8 C 36 % 88 % 1031,7 hPa 0,0 l/m 0,0 km/h (0 Bft)
08.01.2009 11:00 13,6 C -4,9 C 36 % 88 % 1031,7 hPa 0,0 l/m 0,0 km/h (0 Bft)
08.01.2009 12:00 13,5 C -4,8 C 36 % 88 % 1031,5 hPa 0,0 l/m 0,0 km/h (0 Bft)
08.01.2009 13:00 13,5 C -4,1 C 36 % 88 % 1030,7 hPa 0,0 l/m 0,0 km/h (0 Bft)
08.01.2009 14:00 13,5 C -3,9 C 36 % 87 % 1030,7 hPa 0,0 l/m 0,0 km/h (0 Bft)
08.01.2009 15:00 13,5 C -4,2 C 36 % 87 % 1030,7 hPa 0,0 l/m 0,0 km/h (0 Bft)
08.01.2009 16:00 13,5 C -5,0 C 36 % 87 % 1030,7 hPa 0,0 l/m 0,0 km/h (0 Bft)
08.01.2009 17:00 13,4 C -6,3 C 35 % 86 % 1030,7 hPa 0,0 l/m 0,0 km/h (0 Bft)
08.01.2009 18:00 13,4 C -7,6 C 35 % 86 % 1030,8 hPa 0,0 l/m 0,0 km/h (0 Bft)
08.01.2009 19:00 13,5 C -8,8 C 35 % 85 % 1030,8 hPa 0,0 l/m 0,0 km/h (0 Bft)
08.01.2009 20:00 13,8 C -9,7 C 35 % 85 % 1030,8 hPa 0,0 l/m 0,0 km/h (0 Bft)
08.01.2009 21:00 13,7 C -10,4 C 34 % 85 % 1030,8 hPa 0,0 l/m 0,0 km/h (0 Bft)
08.01.2009 22:00 13,8 C -11,2 C 33 % 85 % 1030,8 hPa 0,0 l/m 0,0 km/h (0 Bft)
08.01.2009 23:00 13,8 C -11,7 C 33 % 85 % 1030,8 hPa 0,0 l/m 0,0 km/h (0 Bft)
09.01.2009 00:00 13,7 C -12,3 C 32 % 85 % 1030,8 hPa 0,0 l/m 0,0 km/h (0 Bft)
09.01.2009 01:00 13,4 C -12,5 C 32 % 85 % 1030,6 hPa 0,0 l/m 0,0 km/h (0 Bft)
09.01.2009 02:00 13,2 C -12,9 C 32 % 85 % 1030,9 hPa 0,0 l/m 0,0 km/h (0 Bft)
09.01.2009 03:00 13,0 C -13,3 C 32 % 84 % 1030,0 hPa 0,0 l/m 0,0 km/h (0 Bft)
09.01.2009 04:00 13,0 C -13,6 C 32 % 84 % 1029,9 hPa 0,0 l/m 0,0 km/h (0 Bft)
09.01.2009 05:00 12,9 C -13,8 C 32 % 84 % 1029,9 hPa 0,0 l/m 0,0 km/h (0 Bft)
09.01.2009 06:00 12,8 C -13,9 C 32 % 84 % 1029,9 hPa 0,0 l/m 0,0 km/h (0 Bft)
09.01.2009 07:00 12,8 C -13,5 C 32 % 84 % 1029,9 hPa 0,0 l/m 0,0 km/h (0 Bft)
09.01.2009 08:00 12,8 C -12,3 C 32 % 85 % 1029,9 hPa 0,0 l/m 0,0 km/h (0 Bft)
09.01.2009 09:00 12,7 C -10,9 C 33 % 85 % 1030,5 hPa 0,0 l/m 0,0 km/h (0 Bft)
09.01.2009 10:00 12,6 C -9,0 C 33 % 86 % 1030,8 hPa 0,0 l/m 0,0 km/h (0 Bft)
09.01.2009 11:00 12,7 C -6,3 C 33 % 87 % 1030,7 hPa 0,0 l/m 0,0 km/h (0 Bft)
09.01.2009 12:00 12,7 C -3,1 C 33 % 86 % 1030,7 hPa 0,5 l/m 0,0 km/h (0 Bft)
09.01.2009 13:00 12,8 C -1,8 C 33 % 80 % 1030,1 hPa 0,5 l/m 0,0 km/h (0 Bft)
09.01.2009 14:00 12,9 C -1,0 C 33 % 76 % 1029,6 hPa 0,5 l/m 0,0 km/h (0 Bft)
09.01.2009 15:00 13,0 C -1,6 C 33 % 74 % 1029,7 hPa 0,0 l/m 0,0 km/h (0 Bft)
09.01.2009 16:00 13,0 C -2,7 C 34 % 76 % 1029,7 hPa 0,5 l/m 0,0 km/h (0 Bft)
09.01.2009 17:00 13,0 C -4,1 C 34 % 77 % 1029,7 hPa 0,0 l/m 0,0 km/h (0 Bft)
09.01.2009 18:00 13,1 C -5,7 C 33 % 78 % 1029,7 hPa 0,0 l/m 0,0 km/h (0 Bft)
09.01.2009 19:00 13,1 C -6,9 C 33 % 79 % 1029,7 hPa 0,0 l/m 0,0 km/h (0 Bft)
09.01.2009 20:00 13,1 C -7,9 C 33 % 80 % 1029,8 hPa 0,0 l/m 0,0 km/h (0 Bft)
09.01.2009 21:00 13,0 C -8,7 C 33 % 81 % 1029,8 hPa 0,0 l/m 0,0 km/h (0 Bft)
09.01.2009 22:00 13,0 C -9,4 C 33 % 81 % 1030,2 hPa 0,0 l/m 0,0 km/h (0 Bft)
09.01.2009 23:00 13,1 C -9,9 C 33 % 81 % 1029,8 hPa 0,0 l/m 0,0 km/h (0 Bft)
10.01.2009 00:00 13,1 C -10,5 C 33 % 82 % 1029,8 hPa 0,0 l/m 0,0 km/h (0 Bft)
10.01.2009 01:00 13,0 C -11,0 C 32 % 82 % 1029,4 hPa 0,0 l/m 0,0 km/h (0 Bft)
10.01.2009 02:00 13,0 C -11,3 C 32 % 82 % 1029,1 hPa 0,0 l/m 0,0 km/h (0 Bft)
10.01.2009 03:00 12,9 C -11,5 C 32 % 82 % 1028,8 hPa 0,0 l/m 0,0 km/h (0 Bft)
10.01.2009 04:00 12,9 C -12,0 C 32 % 82 % 1028,8 hPa 0,0 l/m 0,0 km/h (0 Bft)
10.01.2009 05:00 12,8 C -12,3 C 32 % 82 % 1028,8 hPa 0,0 l/m 0,0 km/h (0 Bft)
10.01.2009 06:00 12,8 C -12,5 C 32 % 83 % 1028,3 hPa 0,0 l/m 0,0 km/h (0 Bft)
10.01.2009 07:00 12,8 C -11,6 C 32 % 83 % 1028,2 hPa 0,0 l/m 0,0 km/h (0 Bft)
10.01.2009 08:00 12,7 C -11,1 C 32 % 83 % 1028,8 hPa 0,0 l/m 0,0 km/h (0 Bft)
10.01.2009 09:00 12,9 C -9,8 C 32 % 84 % 1028,8 hPa 0,0 l/m 0,0 km/h (0 Bft)
10.01.2009 10:00 12,8 C -7,5 C 32 % 84 % 1028,8 hPa 0,0 l/m 0,0 km/h (0 Bft)
10.01.2009 11:00 12,9 C -4,7 C 32 % 81 % 1029,2 hPa 0,0 l/m 0,0 km/h (0 Bft)
10.01.2009 12:00 13,1 C -2,0 C 32 % 75 % 1028,8 hPa 0,0 l/m 0,0 km/h (0 Bft)
10.01.2009 13:00 13,3 C -0,9 C 32 % 70 % 1028,6 hPa 0,5 l/m 0,0 km/h (0 Bft)
10.01.2009 14:00 13,3 C -0,5 C 32 % 68 % 1028,6 hPa 0,0 l/m 0,0 km/h (0 Bft)
10.01.2009 15:00 13,2 C -1,5 C 32 % 68 % 1028,6 hPa 0,0 l/m 0,0 km/h (0 Bft)
10.01.2009 16:00 13,2 C -2,8 C 32 % 69 % 1028,1 hPa 0,0 l/m 0,0 km/h (0 Bft)
10.01.2009 17:00 13,4 C -4,0 C 33 % 71 % 1027,7 hPa 0,0 l/m 0,0 km/h (0 Bft)
10.01.2009 18:00 13,3 C -5,1 C 33 % 73 % 1027,7 hPa 0,0 l/m 0,0 km/h (0 Bft)
10.01.2009 19:00 13,4 C -6,0 C 33 % 74 % 1028,4 hPa 0,0 l/m 0,0 km/h (0 Bft)
10.01.2009 20:00 13,4 C -6,7 C 33 % 76 % 1028,4 hPa 0,0 l/m 0,0 km/h (0 Bft)
10.01.2009 21:00 13,4 C -7,0 C 33 % 77 % 1029,2 hPa 0,0 l/m 0,0 km/h (0 Bft)
10.01.2009 22:00 13,3 C -7,4 C 33 % 78 % 1029,9 hPa 0,0 l/m 0,0 km/h (0 Bft)
10.01.2009 23:00 13,3 C -6,9 C 33 % 80 % 1030,8 hPa 0,0 l/m 0,0 km/h (0 Bft)
11.01.2009 00:00 13,3 C -6,9 C 33 % 80 % 1030,0 hPa 0,0 l/m 0,0 km/h (0 Bft)
11.01.2009 01:00 13,2 C -6,9 C 33 % 80 % 1029,7 hPa 0,0 l/m 0,0 km/h (0 Bft)
11.01.2009 02:00 13,2 C -7,1 C 33 % 80 % 1029,8 hPa 0,0 l/m 0,0 km/h (0 Bft)
11.01.2009 03:00 13,2 C -7,1 C 33 % 81 % 1030,0 hPa 0,0 l/m 0,0 km/h (0 Bft)
11.01.2009 04:00 13,1 C -7,5 C 33 % 81 % 1030,5 hPa 0,0 l/m 0,0 km/h (0 Bft)
11.01.2009 05:00 13,1 C -7,9 C 33 % 82 % 1030,8 hPa 0,0 l/m 0,0 km/h (0 Bft)
11.01.2009 06:00 13,1 C -8,1 C 33 % 82 % 1030,8 hPa 0,0 l/m 0,0 km/h (0 Bft)
11.01.2009 07:00 13,1 C -8,0 C 33 % 83 % 1030,8 hPa 0,0 l/m 0,0 km/h (0 Bft)
11.01.2009 08:00 13,0 C -7,9 C 33 % 83 % 1030,8 hPa 0,0 l/m 0,0 km/h (0 Bft)
11.01.2009 09:00 13,2 C -7,5 C 33 % 83 % 1031,2 hPa 0,0 l/m 0,0 km/h (0 Bft)
11.01.2009 10:00 13,2 C -6,2 C 33 % 82 % 1031,3 hPa 0,0 l/m 0,0 km/h (0 Bft)
11.01.2009 11:00 13,4 C -4,1 C 33 % 79 % 1030,7 hPa 0,0 l/m 0,0 km/h (0 Bft)
11.01.2009 12:00 13,4 C -1,7 C 32 % 74 % 1030,7 hPa 0,0 l/m 0,4 km/h (0 Bft)
11.01.2009 13:00 13,4 C -0,5 C 32 % 71 % 1029,9 hPa 0,0 l/m 1,0 km/h (0 Bft)
11.01.2009 14:00 13,4 C 0,2 C 33 % 69 % 1029,6 hPa 0,0 l/m 0,1 km/h (0 Bft)
11.01.2009 15:00 13,4 C -0,1 C 35 % 69 % 1029,2 hPa 0,0 l/m 0,3 km/h (0 Bft)
11.01.2009 16:00 13,5 C -0,8 C 35 % 71 % 1028,6 hPa 0,0 l/m 0,0 km/h (0 Bft)
11.01.2009 17:00 13,5 C -1,2 C 35 % 72 % 1028,6 hPa 0,0 l/m 0,0 km/h (0 Bft)
11.01.2009 18:00 13,6 C -1,6 C 35 % 72 % 1028,6 hPa 0,0 l/m 0,1 km/h (0 Bft)
11.01.2009 19:00 13,6 C -2,0 C 35 % 73 % 1028,7 hPa 0,0 l/m 0,0 km/h (0 Bft)
11.01.2009 20:00 13,6 C -2,7 C 35 % 74 % 1028,7 hPa 0,0 l/m 0,0 km/h (0 Bft)
11.01.2009 21:00 13,6 C -3,1 C 35 % 75 % 1028,7 hPa 0,0 l/m 0,0 km/h (0 Bft)
11.01.2009 22:00 13,6 C -3,2 C 35 % 76 % 1027,9 hPa 0,0 l/m 0,0 km/h (0 Bft)
11.01.2009 23:00 13,6 C -3,4 C 35 % 76 % 1027,7 hPa 0,0 l/m 0,1 km/h (0 Bft)
Min-Datum _ 09.01.09 06.01.09 07.01.09 10.01.09 05.01.09 - 05.01.09
_ Min-Zeit 09:52 23:42 06:06 14:56 00:14 - 00:04
Minimum _ 12,6 C -14,6 C 31 % 67 % 1014,6 hPa - 0,0 km/h (0 Bft)
Max-Datum _ 05.01.09 11.01.09 05.01.09 05.01.09 11.01.09 06.01.09 11.01.09
_ Max-Zeit 14:26 14:38 17:58 08:22 09:36 13:18 13:50
Maximum _ 15,4 C 0,4 C 40 % 88 % 1031,8 hPa 0,5 l/m 15,6 km/h
SO (3 Bft)
Durchschnitt _ 13,6 C -6,5 C 34 % 82 % 1026,7 hPa #3,1 l/m 0,0 km/h (0 Bft)
© 2012 W. Hausmann